Location: Bois de la Silve
(44.4667°N, 6.7833°E)
Time: 00:25:09
(UTC+00:00)

USA 238 DEB - Pass Details

Date: 29 October 2020
Orbit: 1001 x 1211 km, 63.5° (Epoch: 22 November)

Event Time Altitude Azimuth Distance (km) Brightness Sun altitude
Exits shadow 01:57:58 27° 49° (NE) 1,920 5.4 -43.9°
Drops below altitude 10° 02:00:52 10° 42° (NE) 2,909 6.5 -43.4°
Sets 02:03:36 0° 40° (NE) 3,899 7.3 -43.0°
